Tracking 27079 objects as of 24-Mar-2023
HD Live streaming from Space Station
objects crossing your sky now

STARLINK-1979

Track STARLINK-1979 now!
10-day predictions
STARLINK-1979 is classified as:


NORAD ID: 47577
Int'l Code: 2021-009AF
Perigee: 553.7 km
Apogee: 555.2 km
Inclination: 53.1 °
Period: 95.6 minutes
Semi major axis: 6925 km
RCS: Unknown
Launch date: February 4, 2021
Source: United States (US)
Launch site: AIR FORCE EASTERN TEST RANGE (AFETR)
Your satellite tracking list
Your tracking list is empty




NASA's NSSDC Master Catalog

Two Line Element Set (TLE):
1 47577U 21009AF  23082.60626498  .00022328  00000-0  15145-2 0  9993
2 47577  53.0530 194.2803 0001122 107.0550 253.0562 15.06365592117777
Source of the keplerian elements: AFSPC